| time (UTC) | temp F | wind direction | speed MPH | gust MPH | rain 1hr in | rain 24hr in | rain mn in | humidity % | barometer mb |
| 20260509120022 | 75 | 76 | 0.0 | 0.0 | 0.00 | 0.01 | 0.00 | 98 | 1010.3 |
| 20260509114522 | 75 | 76 | 0.0 | 0.0 | 0.00 | 0.01 | 0.00 | 98 | 1010.4 |
| 20260509113025 | 74 | 76 | 0.0 | 0.0 | 0.00 | 0.01 | 0.00 | 98 | 1010.2 |
| 20260509111521 | 75 | 76 | 0.0 | 0.0 | 0.00 | 0.01 | 0.00 | 98 | 1010.3 |
| 20260509110019 | 74 | 76 | 0.0 | 0.0 | 0.00 | 0.01 | 0.00 | 98 | 1009.8 |
| 20260509104520 | 74 | 76 | 0.0 | 0.0 | 0.00 | 0.01 | 0.00 | 98 | 1009.7 |
| 20260509103019 | 74 | 76 | 0.0 | 0.0 | 0.00 | 0.01 | 0.00 | 98 | 1009.8 |
| 20260509101524 | 74 | 76 | 0.0 | 0.0 | 0.00 | 0.01 | 0.00 | 98 | 1009.6 |
| 20260509100022 | 74 | 76 | 0.0 | 0.0 | 0.00 | 0.01 | 0.00 | 98 | 1009.8 |
| 20260509094518 | 74 | 76 | 0.0 | 0.0 | 0.00 | 0.01 | 0.00 | 98 | 1009.4 |
| 20260509093017 | 74 | 76 | 0.0 | 0.0 | 0.00 | 0.01 | 0.00 | 98 | 1009.4 |
| 20260509091516 | 74 | 76 | 0.0 | 0.0 | 0.00 | 0.01 | 0.00 | 98 | 1009.1 |
| 20260509090027 | 74 | 76 | 0.0 | 0.0 | 0.00 | 0.01 | 0.00 | 98 | 1009.2 |
| 20260509084516 | 74 | 76 | 0.0 | 0.0 | 0.00 | 0.01 | 0.00 | 98 | 1009.3 |
| 20260509083029 | 74 | 76 | 0.0 | 0.0 | 0.00 | 0.01 | 0.00 | 98 | 1009.4 |
| 20260509081513 | 74 | 76 | 0.0 | 0.0 | 0.00 | 0.01 | 0.00 | 98 | 1009.5 |
| 20260509080011 | 73 | 76 | 0.0 | 0.0 | 0.00 | 0.01 | 0.00 | 98 | 1009.4 |
| 20260509074510 | 73 | 76 | 0.0 | 0.0 | 0.00 | 0.01 | 0.00 | 97 | 1009.9 |
| 20260509073017 | 73 | 76 | 0.0 | 0.0 | 0.00 | 0.01 | 0.00 | 97 | 1010.0 |
| 20260509071511 | 73 | 76 | 0.0 | 0.0 | 0.00 | 0.01 | 0.00 | 97 | 1010.0 |
| 20260509070008 | 73 | 76 | 0.0 | 0.0 | 0.00 | 0.01 | 0.00 | 97 | 1009.9 |
| 20260509064506 | 74 | 76 | 0.0 | 0.0 | 0.00 | 0.01 | 0.00 | 97 | 1009.8 |
| 20260509063013 | 74 | 76 | 0.0 | 0.0 | 0.00 | 0.01 | 0.00 | 97 | 1010.0 |
| 20260509061502 | 74 | 76 | 0.0 | 0.0 | 0.00 | 0.01 | 0.00 | 97 | 1010.2 |
| 20260509060003 | 75 | 76 | 0.0 | 0.0 | 0.00 | 0.01 | 0.00 | 97 | 1010.1 |
| 20260509054608 | 75 | 76 | 0.0 | 1.0 | 0.00 | 0.01 | 0.00 | 97 | 1010.1 |
| 20260509053130 | 75 | 76 | 0.0 | 1.0 | 0.00 | 0.01 | 0.00 | 96 | 1010.3 |
| 20260509051557 | 75 | 89 | 0.0 | 1.0 | 0.00 | 0.01 | 0.00 | 96 | 1010.2 |
| 20260509050055 | 75 | 329 | 0.0 | 1.0 | 0.00 | 0.01 | 0.00 | 96 | 1010.5 |
| 20260509044636 | 75 | 79 | 0.0 | 1.0 | 0.00 | 0.01 | 0.01 | 97 | 1010.6 |
| 20260509043137 | 75 | 86 | 0.0 | 0.0 | 0.00 | 0.01 | 0.01 | 97 | 1010.5 |
| 20260509041553 | 75 | 86 | 0.0 | 0.0 | 0.00 | 0.01 | 0.01 | 97 | 1010.5 |
| 20260509040051 | 75 | 86 | 0.0 | 1.0 | 0.00 | 0.01 | 0.01 | 96 | 1010.5 |
| 20260509034552 | 75 | 87 | 0.0 | 1.0 | 0.00 | 0.01 | 0.01 | 96 | 1010.0 |
| 20260509033051 | 75 | 77 | 0.0 | 4.0 | 0.00 | 0.01 | 0.01 | 96 | 1010.1 |
| 20260509031558 | 75 | 73 | 0.0 | 2.0 | 0.00 | 0.01 | 0.01 | 96 | 1010.1 |
| 20260509030108 | 75 | 73 | 0.0 | 3.0 | 0.00 | 0.01 | 0.01 | 96 | 1010.0 |
| 20260509024548 | 75 | 68 | 0.0 | 4.0 | 0.00 | 0.01 | 0.01 | 96 | 1009.9 |
| 20260509023047 | 74 | 56 | 0.0 | 3.0 | 0.00 | 0.01 | 0.01 | 96 | 1009.6 |
| 20260509021547 | 74 | 83 | 0.0 | 4.0 | 0.00 | 0.01 | 0.01 | 96 | 1009.7 |
| 20260509020043 | 74 | 64 | 0.0 | 3.0 | 0.00 | 0.01 | 0.01 | 96 | 1009.4 |
| 20260509014543 | 74 | 71 | 0.0 | 3.0 | 0.00 | 0.01 | 0.01 | 95 | 1009.1 |
| 20260509013043 | 74 | 77 | 0.0 | 4.0 | 0.00 | 0.01 | 0.01 | 95 | 1009.3 |
| 20260509011541 | 74 | 80 | 0.0 | 5.0 | 0.00 | 0.01 | 0.01 | 95 | 1009.2 |
| 20260509010041 | 74 | 75 | 0.0 | 3.0 | 0.00 | 0.01 | 0.01 | 95 | 1009.4 |
| 20260509004552 | 74 | 99 | 1.0 | 4.0 | 0.00 | 0.01 | 0.01 | 94 | 1009.1 |
| 20260509003049 | 74 | 73 | 0.0 | 3.0 | 0.00 | 0.01 | 0.01 | 94 | 1009.4 |
| 20260509001539 | 74 | 90 | 0.0 | 5.0 | 0.00 | 0.01 | 0.01 | 94 | 1009.2 |
| 20260509000036 | 74 | 90 | 0.0 | 3.0 | 0.00 | 0.01 | 0.01 | 94 | 1009.0 |
| 20260508234538 | 74 | 68 | 1.0 | 5.0 | 0.00 | 0.01 | 0.01 | 93 | 1009.6 |
| 20260508233039 | 74 | 7 | 0.0 | 2.0 | 0.00 | 0.01 | 0.01 | 93 | 1009.6 |
| 20260508231535 | 74 | 73 | 0.0 | 3.0 | 0.00 | 0.01 | 0.01 | 93 | 1009.2 |
| 20260508230035 | 74 | 76 | 0.0 | 4.0 | 0.00 | 0.01 | 0.01 | 92 | 1009.3 |
| 20260508224548 | 74 | 101 | 1.0 | 4.0 | 0.00 | 0.01 | 0.01 | 92 | 1009.3 |
| 20260508223045 | 74 | 77 | 1.0 | 5.0 | 0.00 | 0.01 | 0.01 | 92 | 1009.1 |
| 20260508221529 | 74 | 92 | 0.0 | 3.0 | 0.00 | 0.01 | 0.01 | 92 | 1009.5 |
| 20260508220027 | 74 | 101 | 0.0 | 2.0 | 0.00 | 0.01 | 0.01 | 91 | 1009.6 |
| 20260508214524 | 73 | 89 | 0.0 | 0.0 | 0.00 | 0.01 | 0.01 | 92 | 1009.8 |
| 20260508213023 | 73 | 60 | 0.0 | 2.0 | 0.00 | 0.01 | 0.01 | 92 | 1009.8 |
| 20260508211514 | 73 | 71 | 0.0 | 3.0 | 0.00 | 0.01 | 0.01 | 92 | 1009.7 |
| 20260508210013 | 73 | 103 | 0.0 | 3.0 | 0.00 | 0.01 | 0.01 | 92 | 1009.9 |
| 20260508204506 | 73 | 95 | 0.0 | 2.0 | 0.00 | 0.01 | 0.01 | 92 | 1009.9 |
| 20260508203003 | 73 | 77 | 0.0 | 2.0 | 0.00 | 0.01 | 0.01 | 93 | 1010.0 |
| 20260508201606 | 72 | 77 | 0.0 | 0.0 | 0.00 | 0.01 | 0.01 | 93 | 1010.6 |
| 20260508200059 | 72 | 15 | 0.0 | 3.0 | 0.00 | 0.01 | 0.01 | 94 | 1010.7 |
| 20260508194600 | 71 | 111 | 0.0 | 3.0 | 0.00 | 0.01 | 0.01 | 94 | 1010.9 |
| 20260508193102 | 71 | 357 | 0.0 | 5.0 | 0.00 | 0.01 | 0.01 | 94 | 1010.8 |
| 20260508191559 | 70 | 86 | 0.0 | 6.0 | 0.00 | 0.01 | 0.01 | 95 | 1010.8 |
| 20260508190056 | 69 | 97 | 1.0 | 6.0 | 0.00 | 0.01 | 0.01 | 96 | 1010.7 |
| 20260508184553 | 68 | 75 | 1.0 | 0.0 | 0.00 | 0.00 | 0.01 | 96 | 1011.0 |
| 20260508183049 | 68 | 96 | 1.0 | 4.0 | 0.00 | 0.01 | 0.01 | 96 | 1011.5 |
| 20260508181548 | 68 | 70 | 1.0 | 4.0 | 0.00 | 0.01 | 0.01 | 96 | 1011.8 |
| 20260508180047 | 68 | 110 | 0.0 | 1.0 | 0.00 | 0.01 | 0.01 | 96 | 1011.9 |
| 20260508174555 | 68 | 101 | 0.0 | 2.0 | 0.01 | 0.01 | 0.01 | 96 | 1012.1 |
| 20260508173045 | 68 | 94 | 0.0 | 4.0 | 0.01 | 0.01 | 0.01 | 96 | 1012.1 |
| 20260508171546 | 68 | 83 | 0.0 | 6.0 | 0.01 | 0.01 | 0.01 | 96 | 1011.7 |
| 20260508170045 | 68 | 72 | 0.0 | 2.0 | 0.01 | 0.01 | 0.01 | 95 | 1012.3 |
| 20260508164542 | 68 | 97 | 0.0 | 2.0 | 0.00 | 0.00 | 0.00 | 95 | 1012.8 |
| 20260508163041 | 68 | 87 | 0.0 | 3.0 | 0.00 | 0.00 | 0.00 | 94 | 1012.8 |
| 20260508161541 | 68 | 99 | 0.0 | 2.0 | 0.00 | 0.00 | 0.00 | 93 | 1013.2 |
| 20260508160040 | 68 | 79 | 0.0 | 2.0 | 0.00 | 0.00 | 0.00 | 93 | 1013.2 |
| 20260508154552 | 68 | 345 | 0.0 | 2.0 | 0.00 | 0.00 | 0.00 | 94 | 1013.3 |
| 20260508153041 | 67 | 58 | 0.0 | 3.0 | 0.00 | 0.00 | 0.00 | 94 | 1013.3 |
| 20260508151538 | 67 | 91 | 0.0 | 2.0 | 0.00 | 0.00 | 0.00 | 95 | 1013.1 |
| 20260508150053 | 67 | 86 | 0.0 | 3.0 | 0.00 | 0.00 | 0.00 | 95 | 1012.9 |
| 20260508144537 | 67 | 84 | 0.0 | 2.0 | 0.00 | 0.00 | 0.00 | 95 | 1013.3 |
| 20260508143049 | 67 | 82 | 0.0 | 1.0 | 0.00 | 0.00 | 0.00 | 95 | 1013.4 |
| 20260508141534 | 67 | 294 | 0.0 | 1.0 | 0.00 | 0.00 | 0.00 | 94 | 1013.4 |
| 20260508140036 | 67 | 81 | 0.0 | 1.0 | 0.00 | 0.00 | 0.00 | 94 | 1013.0 |
| 20260508134534 | 67 | 79 | 0.0 | 1.0 | 0.00 | 0.00 | 0.00 | 94 | 1013.1 |
| 20260508133032 | 67 | 56 | 0.0 | 0.0 | 0.00 | 0.00 | 0.00 | 95 | 1013.2 |
| 20260508131532 | 67 | 89 | 0.0 | 1.0 | 0.00 | 0.00 | 0.00 | 95 | 1013.0 |
| 20260508130032 | 67 | 357 | 0.0 | 1.0 | 0.00 | 0.00 | 0.00 | 95 | 1013.1 |
| 20260508124533 | 67 | 77 | 0.0 | 4.0 | 0.00 | 0.00 | 0.00 | 95 | 1012.8 |
| 20260508123033 | 67 | 84 | 0.0 | 1.0 | 0.00 | 0.00 | 0.00 | 95 | 1013.1 |
| 20260508121530 | 67 | 360 | 0.0 | 2.0 | 0.00 | 0.00 | 0.00 | 96 | 1013.2 |